DUNNNINGN Weather Reports


time (UTC)temp
F
wind
direction
speed
knots
gust
knots
rain 1hr
in
rain 24hr
in
rain mn
in
humidity
%
barometer
mb
20260507160211 54 349 6.1 0.0 0.00 0.00 0.12 75 1015.4
20260507153210 55 348 7.8 0.0 0.00 0.00 0.12 73 1015.4
20260507150210 55 242 7.0 0.0 0.00 0.00 0.12 71 1015.5
20260507143212 56 246 7.0 0.0 0.00 0.00 0.12 73 1015.5
20260507140210 54 289 7.0 0.0 0.00 0.00 0.12 75 1015.7
20260507133210 54 241 5.2 0.0 0.00 0.00 0.12 75 1015.8
20260507130210 55 242 5.2 0.0 0.00 0.00 0.12 73 1015.6
20260507123210 54 242 6.1 0.0 0.00 0.00 0.12 76 1015.7
20260507120211 53 292 8.7 0.0 0.00 0.00 0.12 75 1015.5
20260507113210 53 257 7.8 0.0 0.00 0.00 0.12 79 1015.5
20260507110210 53 275 3.5 0.0 0.00 0.00 0.12 81 1015.3
20260507103216 52 289 6.1 0.0 0.00 0.00 0.12 80 1015.3
20260507100212 52 234 7.8 0.0 0.00 0.00 0.12 80 1015.2
20260507093210 51 17 3.5 0.0 0.00 0.00 0.12 84 1014.9
20260507090211 50 294 6.1 0.0 0.00 0.00 0.12 88 1014.8
20260507083212 49 307 6.1 0.0 0.00 0.00 0.12 91 1014.5
20260507080211 48 304 3.5 0.0 0.00 0.00 0.12 91 1014.4
20260507073212 47 294 6.1 0.0 0.00 0.00 0.12 91 1014.0
20260507070212 47 330 3.5 0.0 0.00 0.00 0.12 91 1013.9
20260507063211 47 245 7.0 0.0 0.00 0.00 0.12 93 1013.7
20260507060211 46 240 3.5 0.0 0.00 0.00 0.12 93 1013.5
20260507053211 46 297 7.0 0.0 0.00 0.00 0.12 94 1013.2
20260507050213 45 257 4.3 0.0 0.00 0.00 0.11 94 1012.8
20260507043211 45 179 0.9 0.0 0.00 0.00 0.11 94 1012.6
20260507040216 45 179 1.7 0.0 0.00 0.00 0.09 93 1012.2
20260507033211 45 179 1.7 0.0 0.00 0.00 0.08 93 1012.0
20260507030211 45 179 2.6 0.0 0.00 0.00 0.07 93 1011.8
20260507023211 45 171 4.3 0.0 0.00 0.00 0.06 92 1011.6
20260507020211 45 171 1.7 0.0 0.00 0.00 0.04 92 1011.4
20260507013212 45 197 1.7 0.0 0.00 0.00 0.03 92 1011.2
20260507010211 45 194 2.6 0.0 0.00 0.00 0.03 91 1011.0
20260507003209 45 218 6.1 0.0 0.00 0.00 0.03 92 1010.9
20260507000209 45 188 7.8 0.0 0.00 0.00 0.03 92 1011.0
20260506233209 45 236 7.0 0.0 0.00 0.00 0.03 92 1011.0
20260506230209 46 252 4.3 0.0 0.00 0.00 0.03 92 1010.9
20260506223209 46 194 4.3 0.0 0.00 0.00 0.02 92 1011.1
20260506213209 46 188 3.5 0.0 0.00 0.00 0.27 92 1010.9
20260506210210 46 174 2.6 0.0 0.00 0.00 0.27 92 1010.5
20260506203210 47 225 3.5 0.0 0.00 0.00 0.25 91 1010.5
20260506200210 47 240 5.2 0.0 0.00 0.00 0.23 91 1010.3
20260506193215 47 204 5.2 0.0 0.00 0.00 0.19 91 1009.9
20260506190211 48 186 7.0 0.0 0.00 0.00 0.17 91 1009.5
20260506183209 48 184 4.3 0.0 0.00 0.00 0.14 91 1009.2
20260506180216 48 240 3.5 0.0 0.00 0.00 0.13 91 1008.9
20260506173210 48 205 5.2 0.0 0.00 0.00 0.12 91 1008.5
20260506170215 48 262 1.7 0.0 0.00 0.00 0.11 91 1008.3
20260506163210 49 252 5.2 0.0 0.00 0.00 0.09 89 1008.4